Weather History for Shirley, NY

Change the Weather History Date:

Thursday, September 12, 2013

  Actual Average (KISP) Record (KISP)
Temperature  
Mean Temperature 74 °F 67 °F  
Max Temperature 80 °F 75 °F 90 °F (2005)
Min Temperature 69 °F 59 °F 45 °F (1993)
Degree Days  
Heating Degree Days 0 1  
Month to date heating degree days 10  
Since 1 July heating degree days 15  
Cooling Degree Days 9 4  
Month to date cooling degree days 57  
Year to date cooling degree days 743  
Growing Degree Days 24 (Base 50)    
Moisture  
Dew Point 71 °F    
Average Humidity 87    
Maximum Humidity 100    
Minimum Humidity 77    
Precipitation  
Precipitation 0.47 in 0.12 in 0.60 in (2009)
Month to date precipitation 1.39  
Year to date precipitation 32.53  
Snow  
Snow 0.00 in 0.00 in - ()
Month to date snowfall 0.0  
Since 1 July snowfall 0.0  
Snow Depth -    
Sea Level Pressure  
Sea Level Pressure 29.87 in    
Wind  
Wind Speed 10 mph (SSW)    
Max Wind Speed 20 mph    
Max Gust Speed 25 mph    
Visibility 6 miles    
Events Rain    
T = Trace of Precipitation, MM = Missing Value Source: NWS Daily Summary

Daily Weather History Graph

Daily Weather History Graph

Search for Another Location

Airport:

Trip Planner

Search our weather history database for the weather conditions in past years. The results will help you decide how hot, cold, wet, or windy it might be!

Date:

Astronomy

Sep. 12, 2013 Rise Set
Actual Time 6:29 AM EDT 7:05 PM EDT
Civil Twilight 6:01 AM EDT 7:32 PM EDT
Nautical Twilight 5:29 AM EDT 8:05 PM EDT
Astronomical Twilight 4:55 AM EDT 8:38 PM EDT
Moon 1:56 PM EDT (9/12) 11:55 PM EDT (9/12)
Length of Visible Light 13h 31m
Length of Day
12h 35m
Waxing Crescent, 50% of the Moon is Illuminated
Sep 12
Waxing Crescent
Sep 12
First Quarter
Sep 19
Full
Sep 26
Last Quarter
Oct 4
New

Hourly Weather History & Observations

Time (EDT) Temp. Dew Point Humidity Pressure Visibility Wind Dir Wind Speed Gust Speed Precip Events Conditions
12:56 AM 73.9 °F 70.0 °F 87% 30.00 in 7.0 mi SW 6.9 mph - N/A   Partly Cloudy
1:56 AM 73.9 °F 70.0 °F 87% 29.98 in 7.0 mi SSW 9.2 mph - N/A   Mostly Cloudy
2:56 AM 73.0 °F 70.0 °F 90% 29.97 in 6.0 mi SSW 8.1 mph - N/A   Clear
3:56 AM 73.0 °F 70.0 °F 90% 29.97 in 6.0 mi SSW 5.8 mph - N/A   Clear
4:56 AM 73.0 °F 70.0 °F 90% 29.97 in 7.0 mi SSW 6.9 mph - N/A   Clear
5:56 AM 72.0 °F 70.0 °F 93% 29.96 in 6.0 mi SSW 9.2 mph - N/A   Partly Cloudy
6:56 AM 72.0 °F 70.0 °F 93% 29.96 in 5.0 mi SSW 8.1 mph - N/A   Clear
7:45 AM 73.4 °F 69.8 °F 88% 29.96 in 5.0 mi SW 9.2 mph - N/A   Partly Cloudy
7:56 AM 73.9 °F 70.0 °F 87% 29.96 in 6.0 mi SSW 8.1 mph 16.1 mph N/A   Partly Cloudy
8:42 AM 75.2 °F 71.6 °F 89% 29.94 in 6.0 mi SSW 10.4 mph - N/A   Mostly Cloudy
8:56 AM 75.0 °F 70.0 °F 84% 29.94 in 6.0 mi SSW 12.7 mph - N/A   Haze
9:56 AM 75.0 °F 71.1 °F 87% 29.94 in 6.0 mi SW 12.7 mph 20.7 mph N/A   Overcast
10:56 AM 75.0 °F 71.1 °F 87% 29.92 in 6.0 mi SSW 10.4 mph - N/A   Overcast
11:51 AM 78.8 °F 71.6 °F 78% 29.90 in 8.0 mi SSW 13.8 mph 20.7 mph N/A   Mostly Cloudy
11:56 AM 79.0 °F 71.1 °F 77% 29.90 in 8.0 mi SSW 13.8 mph - N/A   Mostly Cloudy
12:07 PM 78.8 °F 71.6 °F 78% 29.89 in 8.0 mi SSW 15.0 mph - N/A   Scattered Clouds
12:28 PM 78.8 °F 71.6 °F 78% 29.89 in 8.0 mi South 19.6 mph 25.3 mph N/A   Mostly Cloudy
12:56 PM 78.1 °F 71.1 °F 79% 29.89 in 8.0 mi South 16.1 mph 24.2 mph N/A   Mostly Cloudy
1:21 PM 77.0 °F 71.6 °F 83% 29.88 in 7.0 mi SW 12.7 mph 25.3 mph N/A   Overcast
1:53 PM 78.8 °F 71.6 °F 78% 29.86 in 8.0 mi South 15.0 mph - N/A   Overcast
1:56 PM 78.1 °F 71.1 °F 79% 29.86 in 8.0 mi South 15.0 mph 23.0 mph N/A   Overcast
2:13 PM 77.0 °F 71.6 °F 83% 29.85 in 7.0 mi South 17.3 mph - N/A   Overcast
2:56 PM 75.9 °F 71.1 °F 85% 29.83 in 7.0 mi South 17.3 mph 23.0 mph N/A   Mostly Cloudy
3:56 PM 75.0 °F 71.1 °F 87% 29.79 in 6.0 mi SSW 15.0 mph 20.7 mph N/A   Overcast
4:56 PM 75.0 °F 71.1 °F 87% 29.77 in 6.0 mi South 11.5 mph 21.9 mph N/A   Overcast
5:56 PM 73.9 °F 71.1 °F 91% 29.76 in 6.0 mi SSW 15.0 mph 20.7 mph N/A   Overcast
6:56 PM 73.9 °F 71.1 °F 91% 29.74 in 6.0 mi SSW 10.4 mph 19.6 mph N/A   Overcast
7:56 PM 73.0 °F 70.0 °F 90% 29.75 in 7.0 mi SSW 9.2 mph - N/A   Overcast
8:56 PM 73.0 °F 71.1 °F 93% 29.77 in 1.8 mi WNW 16.1 mph 20.7 mph 0.12 in Rain Rain
9:15 PM 69.8 °F 69.8 °F 100% 29.76 in 2.0 mi WNW 4.6 mph - 0.32 in Rain Rain
9:19 PM 69.8 °F 69.8 °F 100% 29.76 in 4.0 mi Calm Calm - 0.33 in Rain Light Rain
9:56 PM 71.1 °F 69.1 °F 93% 29.75 in 10.0 mi Calm Calm - 0.34 in Rain Light Rain
10:56 PM 70.0 °F 69.1 °F 97% 29.73 in 10.0 mi SSE 4.6 mph - 0.00 in   Overcast
11:56 PM 70.0 °F 68.0 °F 93% 29.71 in 6.0 mi SW 3.5 mph - 0.01 in Rain Light Rain